Regional Weather Roundup
Issued by NWS

Home | Current Version | Previous Version | Graphics & Text | Print | Product List | Glossary On
Versions: 1 2 3 4 5 6 7 8 9 10 11 12 13 14 15 16 17 18 19 20 21 22 23 24 25 26 27
000
ASUS45 KCYS 220510
RWRWY

WYOMING REGIONAL WEATHER ROUNDUP
NATIONAL WEATHER SERVICE CHEYENNE WY
1100 PM MDT SAT OCT 21 2017

NOTE:  "FAIR" INDICATES FEW OR NO CLOUDS BELOW 12,000 FEET
WITH NO SIGNIFICANT WEATHER AND/OR OBSTRUCTIONS TO VISIBILITY.

WYZ001-220600-
YELLOWSTONE NATIONAL PARK

CITY           SKY/WX    TMP DP  RH WIND       PRES   REMARKS
LK YELLOWSTONE   N/A     26  23  88 W12G17    30.18S WCI  16
W YELLOWSTONE  NOT AVBL

$$
WYZ002>013-054>058-071-098>099-220600-
NORTHERN WYOMING

CITY           SKY/WX    TMP DP  RH WIND       PRES   REMARKS
JACKSON        CLOUDY    32  25  75 VRB7      30.23S WCI  26
CODY           FAIR      42  22  44 W24G33    30.01F
GREYBULL       FAIR      40  17  39 E5        30.02S
WORLAND        FAIR      33  18  53 SE3       30.01F
SHERIDAN       FAIR      31  17  56 N6        29.94F WCI  25
BUFFALO        FAIR      37   9  31 SW5       29.97F WCI  33
GILLETTE       FAIR      29  16  58 S5        29.97F WCI  24
HULETT         FAIR      34  18  51 S8        29.97F WCI  27
NEWCASTLE      FAIR      32  18  55 CALM      30.01S

$$
WYZ014>020-022>026-101>103-220600-
CENTRAL WYOMING

CITY           SKY/WX    TMP DP  RH WIND       PRES   REMARKS
BIG PINEY      MOCLDY    24  14  65 NE5       30.26R WCI  18
PINEDALE       CLOUDY    27  19  74 W3        30.26S
DUBOIS         FAIR      30  19  64 NW26G35   30.10S WCI  16
LANDER         FAIR      34  16  47 SE7       30.07S WCI  28
RIVERTON       FAIR      39  18  42 NW12      30.08R WCI  32
CASPER         FAIR      37  12  35 SW12      30.08R WCI  29
DOUGLAS        FAIR      33  13  43 CALM      30.06S

$$
WYZ021-027>030-104>119-220600-
SOUTHERN WYOMING

CITY           SKY/WX    TMP DP  RH WIND       PRES   REMARKS
EVANSTON       FAIR      30  16  56 SW9       30.30R WCI  22
FORT BRIDGER   FAIR      32  17  52 W13       30.31R WCI  23
ROCK SPRINGS   FAIR      34  10  37 W20G26    30.27R WCI  23
DIXON          CLOUDY    32  23  69 CALM      30.32R
RAWLINS        FAIR      32  13  45 W14       30.20R WCI  22
SARATOGA       FAIR      28  19  69 SW3       30.24S
LARAMIE        FAIR      31  14  49 SW16      30.16R WCI  20
CHEYENNE       FAIR      38  15  39 W13       30.12R WCI  30
TORRINGTON     FAIR      42  14  32 W13       30.06F
PINE BLUFFS    FAIR      27  18  69 MISG      30.12F

$$




USA.gov is the U.S. government's official web portal to all federal, state and local government web resources and services.